Location: Voyageurs National Park
(48.5020°N, 92.9292°W)
Time: 16:29:52
(UTC-05:00)

Amateur Radio Satellites - All Passes

Search period start: 16 September 2014 15:59
Search period end: 17 September 2014 15:59
Location: Voyageurs National Park, 48.5020°N, 92.9292°W

Satellite Date Start Highest point End Downlink Frequencies (MHz)
Time Altitude Azimuth
PCSat 16 Sep 16:06:18 16:10:18 20° 329° (NNW) 16:14:19 145.825 MHz
Gurwin Techsat 1B 16 Sep 16:16:09 16:20:24 24° 268° (W) 16:24:40 435.225 FM
Uosat F 16 Sep 16:19:51 16:24:49 68° 71° (ENE) 16:29:48 435.120 FM
Hamsat 16 Sep 16:33:43 16:35:09 12° 57° (ENE) 16:36:35 145.90 MHz
AO-7 16 Sep 16:38:49 16:47:09 76° 253° (WSW) 16:55:29 29.400 - 29.500 MHz
JAS-2 16 Sep 16:55:22 16:59:32 25° 60° (ENE) 17:03:39 435.800 - 435.900 CW/SSB, 435.910 FM
TMSAT-1 16 Sep 16:57:06 17:00:04 15° 273° (W) 17:03:04 436.925 FM
OPAL 16 Sep 17:05:59 17:09:56 22° 94° (E) 17:13:49 ?
MaSat-1 16 Sep 17:08:22 17:10:43 14° 35° (NE) 17:12:55 437.345 MHz
Sapphire 16 Sep 17:25:40 17:27:44 12° 347° (NNW) 17:29:47 437.095 MHz 1200 baud AX-25 AFSK
PCSat 16 Sep 17:54:41 17:55:58 11° 355° (N) 17:57:15 145.825 MHz
Uosat F 16 Sep 18:00:47 18:04:07 18° 270° (W) 18:07:27 435.120 FM
Hamsat 16 Sep 18:06:01 18:10:23 81° 75° (ENE) 18:14:46 145.90 MHz
Saudisat 1A 16 Sep 18:11:39 18:15:22 27° 117° (ESE) 18:19:07 436.775 MHz
AO-7 16 Sep 18:36:09 18:41:20 18° 274° (W) 18:46:32 29.400 - 29.500 MHz
JAS-2 16 Sep 18:39:14 18:44:24 52° 260° (W) 18:49:28 435.800 - 435.900 CW/SSB, 435.910 FM
OPAL 16 Sep 18:44:04 18:49:13 61° 292° (WNW) 18:54:16 ?
MaSat-1 16 Sep 18:44:12 18:48:24 80° 59° (ENE) 18:51:57 437.345 MHz
SO-67 16 Sep 18:46:58 18:50:00 29° 69° (ENE) 18:53:04 435.3500 MHz FM
KITSAT 1 16 Sep 18:52:39 18:56:12 14° 98° (E) 18:59:46 435.175 FM
Sapphire 16 Sep 19:11:37 19:13:44 12° 14° (NNE) 19:15:52 437.095 MHz 1200 baud AX-25 AFSK
HO-68 16 Sep 19:15:26 19:20:25 21° 49° (NE) 19:25:25 435.675 MHz FM
STRAND 1 16 Sep 19:19:42 19:24:05 28° 94° (E) 19:28:28 ?
PCSat 16 Sep 19:38:52 19:41:54 15° 22° (NNE) 19:44:56 145.825 MHz
Hamsat 16 Sep 19:45:11 19:46:55 12° 273° (W) 19:48:40 145.90 MHz
Saudisat 1A 16 Sep 19:50:30 19:54:46 47° 316° (NW) 19:59:03 436.775 MHz
SO-67 16 Sep 20:20:27 20:23:06 20° 267° (W) 20:25:45 435.3500 MHz FM
MaSat-1 16 Sep 20:24:09 20:24:15 10° 262° (W) 20:24:22 437.345 MHz
OPAL 16 Sep 20:25:10 20:27:05 12° 312° (NW) 20:29:00 ?
KITSAT 1 16 Sep 20:42:03 20:49:58 62° 118° (ESE) 20:57:55 435.175 FM
Sapphire 16 Sep 20:54:21 20:59:04 29° 39° (NE) 21:03:45 437.095 MHz 1200 baud AX-25 AFSK
STRAND 1 16 Sep 20:58:35 21:03:28 45° 293° (WNW) 21:08:20 ?
HO-68 16 Sep 21:00:00 21:07:07 80° 70° (ENE) 21:14:18 435.675 MHz FM
Oscar 11 16 Sep 21:04:22 21:07:59 26° 65° (ENE) 21:11:38 145.825 FM, Beacon 2401.500 USB
AO-40 16 Sep 21:09:34 02:30:20 34° 183° (S) 09:01:25 Beacon 2401.320
UKube-1 16 Sep 21:17:09 21:21:19 48° 69° (ENE) 21:25:30 145.840 MHz, 145.915 MHz
PCSat 16 Sep 21:21:38 21:26:49 42° 46° (NE) 21:31:57 145.825 MHz
Saudisat 1A 16 Sep 21:32:54 21:35:24 15° 338° (NNW) 21:37:54 436.775 MHz
FUNcube-1 16 Sep 22:20:38 22:24:58 61° 72° (ENE) 22:29:26 145.950 - 145.970 MHz USB
Sapphire 16 Sep 22:37:32 22:42:57 67° 240° (WSW) 22:48:19 437.095 MHz 1200 baud AX-25 AFSK
KITSAT 1 16 Sep 22:38:05 22:45:46 45° 322° (NW) 22:53:28 435.175 FM
Oscar 11 16 Sep 22:39:57 22:44:02 38° 263° (W) 22:48:08 145.825 FM, Beacon 2401.500 USB
HO-68 16 Sep 22:50:09 22:55:36 23° 270° (W) 23:01:06 435.675 MHz FM
UKube-1 16 Sep 22:54:34 22:57:46 20° 268° (W) 23:01:00 145.840 MHz, 145.915 MHz
SO-50 16 Sep 23:03:07 23:06:29 21° 113° (ESE) 23:09:55 436.795 FM
PCSat 16 Sep 23:05:12 23:10:14 39° 246° (WSW) 23:15:13 145.825 MHz
FUNcube-1 16 Sep 23:59:00 00:01:48 17° 271° (W) 00:04:40 145.950 - 145.970 MHz USB
Sapphire 17 Sep 00:24:04 00:25:20 11° 259° (W) 00:26:36 437.095 MHz 1200 baud AX-25 AFSK
KITSAT 1 17 Sep 00:37:14 00:43:29 24° 349° (N) 00:49:45 435.175 FM
SO-50 17 Sep 00:42:09 00:46:38 61° 313° (NW) 00:51:15 436.795 FM
Saudisat 1A 17 Sep 00:55:11 00:58:15 18° 27° (NNE) 01:01:19 436.775 MHz
UOSAT-12 17 Sep 00:57:35 01:01:22 25° 115° (ESE) 01:05:12 437.025 FM, 437.400 FM
JAS-1B 17 Sep 01:47:55 01:48:49 10° 82° (E) 01:49:43 435.800 - 435.900 CW/SSB
Oscar 19 17 Sep 02:01:33 02:05:54 27° 93° (E) 02:10:13 437.125 CW, 437.150 USB
AO-27 17 Sep 02:12:48 02:15:51 16° 88° (E) 02:18:54 436.795 MHz FM
SO-50 17 Sep 02:25:01 02:28:08 18° 335° (NNW) 02:31:19 436.795 FM
Saudisat 1A 17 Sep 02:34:11 02:38:37 70° 49° (NE) 02:43:01 436.775 MHz
KITSAT 1 17 Sep 02:35:18 02:41:56 27° 19° (NNE) 02:48:33 435.175 FM
UOSAT-12 17 Sep 02:36:38 02:41:13 55° 314° (NW) 02:45:53 437.025 FM, 437.400 FM
Oscar 16 17 Sep 02:39:23 02:44:31 57° 101° (E) 02:49:35 437.025 USB, Beacon 2401.1428
Gurwin Techsat 1B 17 Sep 02:48:26 02:51:42 16° 88° (E) 02:54:57 435.225 FM
OPAL 17 Sep 02:49:29 02:51:13 12° 48° (NE) 02:52:58 ?
AO-Echo 17 Sep 03:16:17 03:21:02 60° 101° (ESE) 03:25:53 ?
ITAMSAT 1 17 Sep 03:16:35 03:21:42 52° 100° (E) 03:26:46 435.822 SSB
Uribyol 2 17 Sep 03:21:32 03:26:44 61° 102° (ESE) 03:31:53 436.500 FM
TMSAT-1 17 Sep 03:26:39 03:31:02 26° 93° (E) 03:35:24 436.925 FM
JAS-1B 17 Sep 03:34:53 03:40:52 75° 104° (ESE) 03:46:31 435.800 - 435.900 CW/SSB
Oscar 19 17 Sep 03:40:30 03:45:29 48° 292° (WNW) 03:50:24 437.125 CW, 437.150 USB
AO-27 17 Sep 03:50:47 03:56:01 82° 287° (WNW) 04:01:15 436.795 MHz FM
RS-15 17 Sep 04:03:59 04:12:36 28° 103° (ESE) 04:21:08 29.354 - 29.394 USB, Beacon 29.352 USB
Oscar 10/S400 17 Sep 04:05:06 04:59:47 19° 245° (WSW) 06:58:27 145.825 - 145.975 CW/USB, Beacon 145.810 USB
SO-50 17 Sep 04:09:11 04:10:36 11° 0° (N) 04:12:03 436.795 FM
Saudisat 1A 17 Sep 04:14:47 04:17:43 18° 248° (WSW) 04:20:39 436.775 MHz
UOSAT-12 17 Sep 04:19:16 04:22:23 17° 337° (NNW) 04:25:32 437.025 FM, 437.400 FM
Oscar 16 17 Sep 04:19:24 04:23:31 24° 300° (WNW) 04:27:37 437.025 USB, Beacon 2401.1428
OPAL 17 Sep 04:24:00 04:29:04 58° 67° (ENE) 04:34:12 ?
Uosat F 17 Sep 04:25:01 04:28:00 16° 89° (E) 04:30:59 435.120 FM
Gurwin Techsat 1B 17 Sep 04:26:59 04:32:20 80° 287° (WNW) 04:37:38 435.225 FM
KITSAT 1 17 Sep 04:31:07 04:39:08 60° 46° (NE) 04:47:05 435.175 FM
AO-7 17 Sep 04:36:32 04:43:35 30° 93° (E) 04:50:35 29.400 - 29.500 MHz
ISS 17 Sep 04:39:33 04:42:36 34° 146° (SE) 04:45:40 145.800 FM
AO-Echo 17 Sep 04:55:57 04:59:27 21° 300° (WNW) 05:03:00 ?
ITAMSAT 1 17 Sep 04:56:38 05:00:55 26° 299° (WNW) 05:05:11 435.822 SSB
Uribyol 2 17 Sep 05:01:46 05:05:49 23° 301° (WNW) 05:09:51 436.500 FM
STRAND 1 17 Sep 05:04:54 05:06:02 11° 50° (NE) 05:07:09 ?
TMSAT-1 17 Sep 05:06:06 05:11:15 51° 291° (WNW) 05:16:21 436.925 FM
JAS-1B 17 Sep 05:26:39 05:30:53 20° 307° (NW) 05:34:55 435.800 - 435.900 CW/SSB
AO-27 17 Sep 05:31:54 05:34:46 15° 306° (NW) 05:37:38 436.795 MHz FM
JAS-2 17 Sep 05:43:32 05:47:13 17° 89° (E) 05:51:08 435.800 - 435.900 CW/SSB, 435.910 FM
SO-50 17 Sep 05:49:48 05:53:04 18° 25° (NNE) 05:56:23 436.795 FM
Hamsat 17 Sep 05:50:21 05:51:41 11° 86° (E) 05:53:01 145.90 MHz
Uosat F 17 Sep 06:02:21 06:07:24 78° 287° (WNW) 06:12:25 435.120 FM
UOSAT-12 17 Sep 06:02:57 06:04:28 11° 1° (N) 06:06:00 437.025 FM, 437.400 FM
OPAL 17 Sep 06:04:16 06:08:19 23° 266° (W) 06:12:24 ?
Gurwin Techsat 1B 17 Sep 06:08:35 06:11:29 15° 306° (NW) 06:14:23 435.225 FM
RS-15 17 Sep 06:12:28 06:23:31 90° 127° (SE) 06:34:32 29.354 - 29.394 USB, Beacon 29.352 USB
ISS 17 Sep 06:15:53 06:19:13 65° 345° (NNW) 06:22:32 145.800 FM
KITSAT 1 17 Sep 06:26:54 06:34:17 41° 248° (WSW) 06:41:39 435.175 FM
AO-7 17 Sep 06:28:49 06:37:05 73° 294° (WNW) 06:45:18 29.400 - 29.500 MHz
STRAND 1 17 Sep 06:39:13 06:44:12 59° 70° (ENE) 06:49:13 ?
Hamsat 17 Sep 07:23:57 07:28:16 83° 285° (WNW) 07:32:30 145.90 MHz
JAS-2 17 Sep 07:27:09 07:32:56 88° 286° (WNW) 07:39:27 435.800 - 435.900 CW/SSB, 435.910 FM
SO-50 17 Sep 07:29:50 07:34:35 60° 47° (NE) 07:39:23 436.795 FM
SO-67 17 Sep 07:39:53 07:42:35 21° 93° (E) 07:45:17 435.3500 MHz FM
Uosat F 17 Sep 07:42:57 07:45:23 14° 307° (NW) 07:47:49 435.120 FM
UOSAT-12 17 Sep 07:43:08 07:46:30 19° 26° (NNE) 07:49:51 437.025 FM, 437.400 FM
ISS 17 Sep 07:52:58 07:56:13 48° 5° (N) 07:59:28 145.800 FM
STRAND 1 17 Sep 08:19:57 08:23:47 21° 269° (W) 08:27:38 ?
AO-7 17 Sep 08:22:42 08:28:36 22° 317° (NW) 08:34:29 29.400 - 29.500 MHz
RS-15 17 Sep 08:27:06 08:37:18 42° 336° (NNW) 08:47:36 29.354 - 29.394 USB, Beacon 29.352 USB
HO-68 17 Sep 08:27:09 08:28:54 11° 82° (E) 08:30:39 435.675 MHz FM
MaSat-1 17 Sep 08:34:39 08:38:02 18° 104° (ESE) 08:41:24 437.345 MHz
Hamsat 17 Sep 09:02:10 09:03:30 11° 304° (WNW) 09:04:49 145.90 MHz
SO-50 17 Sep 09:11:00 09:14:50 24° 246° (WSW) 09:18:41 436.795 FM
SO-67 17 Sep 09:12:38 09:15:39 28° 291° (WNW) 09:18:39 435.3500 MHz FM
JAS-2 17 Sep 09:13:42 09:17:26 18° 304° (WNW) 09:21:26 435.800 - 435.900 CW/SSB, 435.910 FM
UOSAT-12 17 Sep 09:22:48 09:27:32 65° 48° (NE) 09:32:12 437.025 FM, 437.400 FM
ISS 17 Sep 09:29:46 09:33:07 78° 203° (SSW) 09:36:26 145.800 FM
MaSat-1 17 Sep 10:09:17 10:14:21 76° 302° (WNW) 10:19:17 437.345 MHz
FUNcube-1 17 Sep 10:09:32 10:09:38 10° 85° (E) 10:09:45 145.950 - 145.970 MHz USB
HO-68 17 Sep 10:11:04 10:18:10 59° 102° (ESE) 10:25:13 435.675 MHz FM
Oscar 11 17 Sep 10:23:44 10:27:35 29° 95° (E) 10:31:23 145.825 FM, Beacon 2401.500 USB
UKube-1 17 Sep 10:37:32 10:41:49 52° 101° (E) 10:46:04 145.840 MHz, 145.915 MHz
RS-15 17 Sep 10:43:22 10:53:10 35° 10° (N) 11:03:10 29.354 - 29.394 USB, Beacon 29.352 USB
UOSAT-12 17 Sep 11:03:45 11:07:16 21° 247° (WSW) 11:10:45 437.025 FM, 437.400 FM
ISS 17 Sep 11:07:13 11:09:24 16° 222° (SW) 11:11:35 145.800 FM
FUNcube-1 17 Sep 11:42:08 11:46:48 79° 103° (ESE) 11:51:25 145.950 - 145.970 MHz USB
Oscar 19 17 Sep 11:47:49 11:48:42 10° 50° (NE) 11:49:34 437.125 CW, 437.150 USB
MaSat-1 17 Sep 11:48:34 11:51:55 18° 321° (NW) 11:55:11 437.345 MHz
HO-68 17 Sep 11:59:14 12:05:34 35° 302° (WNW) 12:11:54 435.675 MHz FM
Oscar 11 17 Sep 11:59:53 12:03:47 32° 293° (WNW) 12:07:39 145.825 FM, Beacon 2401.500 USB
PCSat 17 Sep 12:09:42 12:12:44 15° 104° (ESE) 12:15:46 145.825 MHz
UKube-1 17 Sep 12:14:29 12:17:41 20° 299° (WNW) 12:20:53 145.840 MHz, 145.915 MHz
Oscar 16 17 Sep 12:22:47 12:26:31 20° 58° (ENE) 12:30:15 437.025 USB, Beacon 2401.1428
JAS-1B 17 Sep 12:34:14 12:40:20 24° 56° (NE) 12:45:43 435.800 - 435.900 CW/SSB
AO-Echo 17 Sep 12:56:40 12:59:44 17° 59° (ENE) 13:02:47 ?
RS-15 17 Sep 12:57:10 13:08:07 63° 41° (NE) 13:19:26 29.354 - 29.394 USB, Beacon 29.352 USB
ITAMSAT 1 17 Sep 13:01:06 13:04:43 20° 57° (ENE) 13:08:21 435.822 SSB
Uribyol 2 17 Sep 13:05:35 13:09:30 22° 59° (ENE) 13:13:26 436.500 FM
TMSAT-1 17 Sep 13:16:07 13:17:18 11° 50° (NE) 13:18:28 436.925 FM
FUNcube-1 17 Sep 13:19:51 13:22:36 16° 302° (WNW) 13:25:22 145.950 - 145.970 MHz USB
Oscar 19 17 Sep 13:21:53 13:26:57 55° 70° (ENE) 13:32:03 437.125 CW, 437.150 USB
Sapphire 17 Sep 13:22:51 13:28:05 53° 117° (ESE) 13:33:21 437.095 MHz 1200 baud AX-25 AFSK
AO-27 17 Sep 13:34:07 13:38:46 35° 64° (ENE) 13:43:26 436.795 MHz FM
PCSat 17 Sep 13:49:56 13:55:21 87° 123° (ESE) 14:00:49 145.825 MHz
AO-7 17 Sep 13:51:15 13:56:16 18° 38° (NE) 14:01:17 29.400 - 29.500 MHz
Oscar 16 17 Sep 14:00:10 14:05:21 71° 257° (WSW) 14:10:35 437.025 USB, Beacon 2401.1428
Gurwin Techsat 1B 17 Sep 14:12:45 14:17:34 37° 65° (ENE) 14:22:25 435.225 FM
JAS-1B 17 Sep 14:21:39 14:30:19 90° 254° (WSW) 14:37:32 435.800 - 435.900 CW/SSB
AO-Echo 17 Sep 14:33:17 14:38:01 71° 257° (WSW) 14:42:44 ?
ITAMSAT 1 17 Sep 14:38:31 14:43:41 74° 256° (WSW) 14:48:53 435.822 SSB
Oscar 10/S400 17 Sep 14:40:42 14:44:00 11° 141° (SE) 14:47:16 145.825 - 145.975 CW/USB, Beacon 145.810 USB
Uribyol 2 17 Sep 14:43:26 14:48:33 63° 258° (WSW) 14:53:43 436.500 FM
TMSAT-1 17 Sep 14:50:58 14:56:07 56° 70° (ENE) 15:01:19 436.925 FM
Oscar 19 17 Sep 15:02:33 15:06:38 23° 268° (W) 15:10:46 437.125 CW, 437.150 USB
Sapphire 17 Sep 15:06:51 15:11:45 34° 318° (NW) 15:16:42 437.095 MHz 1200 baud AX-25 AFSK
RS-15 17 Sep 15:09:53 15:20:20 50° 246° (WSW) 15:31:11 29.354 - 29.394 USB, Beacon 29.352 USB
AO-27 17 Sep 15:13:29 15:18:15 37° 263° (W) 15:23:04 436.795 MHz FM
PCSat 17 Sep 15:35:08 15:39:29 24° 325° (NW) 15:43:52 145.825 MHz
AO-7 17 Sep 15:39:21 15:47:23 57° 62° (ENE) 15:55:26 29.400 - 29.500 MHz
Uosat F 17 Sep 15:41:28 15:45:53 33° 64° (ENE) 15:50:20 435.120 FM
Oscar 16 17 Sep 15:44:59 15:45:39 10° 276° (W) 15:46:20 437.025 USB, Beacon 2401.1428
